VANGUARD DEB, 61446

Orbit data source: Space-Track

VANGUARD DEB, 61446 is space debris in LEO originally from a launch on Tue, 17 Feb 1959 UTC launched from the Air Force Eastern Test Range (AFETR). Debris objects in space refer to the collection of defunct objects orbiting the Earth. Examples of debris include non-operational satellites, rocket bodies, and fragments generated from explosions, collisions, or faulty payload assembly.

Loading next visibility...
Identifier
61446, 1959-001E
Orbit
LEO
Country
Flag of USUS
Related business
Manufacturer
Unknown
Mission
Spacecraft
Bus & Motor
Unknown
Mass
Unknown
Launch date (UTC)
1959-02-17 (67 years ago)
Launch vehicle
Unknown
Launch site
Air Force Eastern Test Range (AFETR)
Object type
Payload
Rocket body
Debris
Shape & HBR
Unknown shape, 0.1 m
Radar Cross Section
Small (<0.1 m²)

Expand to show TLE details & history
Last TLE update: 5 days ago

TLE from 5 days ago
0 VANGUARD DEB
1 61446U 59001E   25302.79536334  .00000722  00000-0  28433-3 0  9992
2 61446  32.8603 316.7221 1221914 117.7997  41.7291 12.43184178956191
Epoch: 2025-10-29T19:05Z
TLE epoch observation values (Epoch: 2025-10-29T19:05:19.392Z)
Latitude
5.41364°
Longitude
163.63717°
Altitude
833.545 km
Speed
7.742 km/s
True Right ascension
08h 33m 19s
True Declination
5° 22' 54"
Sunlit
Object was in daylight at epoch
Visualization orbit readout
Latitude
Unknown
Longitude
Unknown
Altitude
Unknown
Speed
Unknown
Apparent Right ascension
Unknown
Apparent Declination
Unknown
Sunlit
N/A
Visualization observer readout
Local Sidereal Time
07:46:31
Azimuth
Unknown
Elevation
Unknown
Doppler factor
Unknown
Orbital elements
Apogee altitude
2,458.528 km
Perigee altitude
534.143 km
Semi-major axis
7,874.472 km
Eccentricity
0.12219
Inclination
32.8603°
RAAN
316.7221°
Arg. of periapsis
117.7997°
True anomaly
52.18193°
Mean anomaly
41.7291°
Eccentric anomaly
46.83563°
Mean motion
3.10607 °/min
Orbital period
115.9 mins
BSTAR
0.00028433
Loading maneuver chart data...
Computing Atmospheric mass density...
Loading historical data...
Loading historical data...
Loading historical data...
Loading historical data...
Loading historical data...
Loading historical data...
Loading historical data...
Other satellites on launch #1 in the year 1959 (1959-02-17 UTC)

Documentation

Showing up to 5 results
|